Saturday, August 18, 2018, 8:23 PM EDT
Back to Local

KWAL, Wallops Flight Fac Airport

Location: Wallops Island, VA, United States Lat: 37.933
Local Time: 8:23 PM EDT ( 0:23 GMT) Lon: -75.467
Time Zone: US/Eastern Elev: 39 ft

Show me the last for .
Show Decoded

2018-08-18 19:54 METAR KWAL 182354Z AUTO 24005KT 9SM -RA FEW120 26/25 A2986 RMK AO2 SLP108 P0007
                 60009 T02610250 10328 20261 53007 TSNO =
2018-08-18 18:54 METAR KWAL 182254Z AUTO 24005KT 4SM RA SCT110 28/25 A2984 RMK AO2 RAB32 SLP103
                 P0002 T02780250 TSNO =
2018-08-18 17:54 METAR KWAL 182154Z AUTO 25005KT 10SM CLR 30/23 A2984 RMK AO2 SLP100 T03000228
                 TSNO =
2018-08-18 16:54 METAR KWAL 182054Z AUTO 23007KT 10SM FEW029 32/24 A2984 RMK AO2 SLP101 T03170239
                 56017 TSNO =
2018-08-18 15:54 METAR KWAL 181954Z AUTO 29007KT 10SM SCT023 SCT036 31/25 A2984 RMK AO2 SLP101
                 T03110250 TSNO =
2018-08-18 14:54 METAR KWAL 181854Z AUTO 27007KT 10SM CLR 31/24 A2987 RMK AO2 SLP112 T03060244
                 TSNO =
2018-08-18 14:18 METAR KWAL 181818Z AUTO 25008KT 10SM SCT024 BKN031 31/24 A2988 =
2018-08-18 14:10 METAR KWAL 181810Z AUTO 27011G17KT 10SM BKN024 BKN031 32/24 A2988 RMK AO2
                 T03220244 TSNO =
2018-08-18 13:54 METAR KWAL 181754Z AUTO 25010KT 10SM FEW025 32/24 A2989 RMK AO2 SLP118 T03170244
                 10322 20283 58014 TSNO =
2018-08-18 12:54 METAR KWAL 181654Z AUTO 25006G14KT 10SM SCT022 31/24 A2990 RMK AO2 SLP122
                 T03060244 TSNO =
2018-08-18 11:54 METAR KWAL 181554Z AUTO 25011KT 10SM FEW019 30/24 A2992 RMK AO2 SLP127 T03000244
                 TSNO =
2018-08-18 10:54 METAR KWAL 181454Z AUTO 25009KT 10SM SCT019 29/24 A2993 RMK AO2 SLP131 T02940244
                 58001 TSNO =
2018-08-18 10:30 METAR KWAL 181430Z AUTO 25011G17KT 10SM SCT020 29/24 A2993 RMK AO2 T02940244
                 TSNO =
2018-08-18 09:54 METAR KWAL 181354Z AUTO 27010KT 10SM BKN020 29/24 A2993 RMK AO2 SLP132 T02940244
                 TSNO =
2018-08-18 08:54 METAR KWAL 181254Z AUTO 25010G16KT 10SM FEW021 29/25 A2993 RMK AO2 SLP132
                 T02940250 TSNO =
2018-08-18 07:54 METAR KWAL 181154Z AUTO 24009KT 10SM CLR 28/25 A2993 RMK AO2 SLP132 T02830250
                 10283 20267 58005 TSNO =
2018-08-18 06:54 METAR KWAL 181054Z AUTO 23006KT 10SM CLR 27/24 A2994 RMK AO2 SLP136 T02670244
                 TSNO =
2018-08-18 05:54 METAR KWAL 180954Z AUTO 22007KT 10SM CLR 27/24 A2994 RMK AO2 SLP135 T02670244
                 TSNO =
2018-08-18 04:54 METAR KWAL 180854Z AUTO 23006KT 10SM CLR 27/25 A2995 RMK AO2 SLP137 T02720250
                 56013 TSNO =
2018-08-18 03:54 METAR KWAL 180754Z AUTO 22006KT 10SM CLR 27/25 A2996 RMK AO2 SLP141 T02720250
                 TSNO =
2018-08-18 02:54 METAR KWAL 180654Z AUTO 21006KT 10SM CLR 27/25 A2996 RMK AO2 SLP144 T02720250
                 TSNO =
2018-08-18 01:54 METAR KWAL 180554Z AUTO 23009KT 10SM CLR 28/26 A2998 RMK AO2 SLP150 T02830256
                 10283 20272 56002 TSNO =
2018-08-18 00:54 METAR KWAL 180454Z AUTO 22008KT 9SM CLR 28/26 A2999 RMK AO2 SLP152 T02780256
                 403220250 TSNO =
2018-08-17 23:54 METAR KWAL 180354Z AUTO 20007KT 10SM CLR 28/26 A2998 RMK AO2 SLP149 T02780261
                 TSNO =
2018-08-17 22:54 METAR KWAL 180254Z AUTO 20006KT 10SM CLR 27/26 A2999 RMK AO2 SLP153 T02720261
                 58002 TSNO =
2018-08-17 21:54 METAR KWAL 180154Z AUTO 20008KT 10SM CLR 28/26 A3000 RMK AO2 SLP156 T02780261
                 TSNO =
2018-08-17 20:54 METAR KWAL 180054Z AUTO 20010KT 10SM CLR 28/26 A3000 RMK AO2 SLP155 T02780261
                 TSNO =

Support USWX by starting your Amazon purchase here.